Location: Poughquag
(41.6090°N, 73.6820°W)
Time: 04:59:10
(UTC-04:00)

ITUPSAT 1 - Pass Details

Date: 27 June 2024
Orbit: 695 x 705 km, 98.5° (Epoch: 24 July)

Event Time Altitude Azimuth Distance (km) Brightness Sun altitude
Rises 22:49:13 0° 17° (NNE) 3,107 ? -18.6°
Reaches altitude 10° 22:51:31 10° 21° (NNE) 2,184 ? -18.8°
Maximum altitude 22:56:14 58° 101° (E) 824 ? -19.3°
Enters shadow 22:57:38 41° 157° (SSE) 1,018 ? -19.4°
